Back to catalog

STARLINK-38200

AliveCommunicationsSSO
NORAD 100232·PAYLOAD·🇺🇸 United States

Launched Aug 4, 2026 from Vandenberg Space Force Base

Loading…

Next Passes (next 24 hours)

TLE

FreshSource: Space-Track

Epoch: Sep 14, 2026, 16:07 UTC

1 A0232U 26177V   26257.67158069  .00017141  00000-0  31601-3 0  9992
2 A0232  97.2834 308.4972 0001148  86.6669 273.4714 15.49201558  6464

Track STARLINK-38200 in real time with AllMySat

Download on the App Store